Location: Tabor
(49.4170°N, 14.6670°E)
Time: 09:54:53
(UTC+02:00)

ISS - Pass Details

Date: 25 May 2021
Orbit: 417 x 422 km, 51.6° (Epoch: 13 June)

Event Time Altitude Azimuth Distance (km) Brightness Sun altitude
Rises 00:36:30 0° 285° (WNW) 2,368 0.3 -19.5°
Reaches altitude 10° 00:38:56 10° 269° (W) 1,502 -0.9 -19.5°
Enters shadow 00:39:31 13° 261° (W) 1,332 -1.3 -19.5°
